Weather Roundup
Issued by NWS Springfield, MO

Home | Current Version | Previous Version | Text Only | Print | Product List | Glossary On
Versions: 1 2 3 4 5 6 7 8 9 10 11 12 13 14 15 16 17 18 19 20 21 22 23 24 25 26 27 28 29 30 31 32 33 34 35 36 37 38 39 40 41 42 43 44 45 46 47 48 49 50
000
NZUS99 KSGF 050457
HRRSGF

HOURLY WEATHER
NATIONAL WEATHER SERVICE SPRINGFIELD MO
1100 PM CST SUN DEC 04 2016

......SGF CWA......

CITY           SKY/WX    TMP DP  RH WIND       PRES   REMARKS
SPRINGFIELD    CLOUDY    30  29  96 S3        30.02R
JOPLIN         CLOUDY    31  31 100 S3        30.04R FOG
WEST PLAINS    CLOUDY    31  30  96 CALM      30.05R FOG
ROLLA          CLEAR     29  28  96 W5        30.02R FOG     WCI  24

......SURROUNDING SGF CWA......

CITY           SKY/WX    TMP DP  RH WIND       PRES   REMARKS
CHANUTE        FOG       31  30  96 CALM      30.02S VSB 1/4
PARSONS        CLEAR     30  28  92 CALM      30.04S
COFFEYVILLE    CLOUDY    32  32 100 CALM      30.03F
EMPORIA        CLEAR     32  31  96 S7        29.98F WCI  26
HARRISON AR    CLOUDY    36  35  96 CALM      30.05R

......KANSAS AND MISSOURI......

CITY           SKY/WX    TMP DP  RH WIND       PRES   REMARKS
KANSAS CTY INT CLEAR     32  29  88 SW6       29.98F WCI  26
SEDALIA        CLEAR     35  33  92 SW3       30.02S
ST JOSEPH      CLEAR     30  29  96 S5        29.98F WCI  25
ST LOUIS       MOCLDY    39  33  79 CALM      30.03F
WICHITA        CLEAR     32  31  96 S6        29.99S WCI  26
TOPEKA         FOG       29  26  89 CALM      29.98F VSB 1/4
OLATHE         CLEAR     32  32 100 SW5       29.99S FOG     WCI  27

......TENNESSEE......

CITY           SKY/WX    TMP DP  RH WIND       PRES   REMARKS
MEMPHIS        NOT AVBL
NASHVILLE      CLOUDY    47  44  90 CALM      30.05R

......ARKANSAS.......

CITY           SKY/WX    TMP DP  RH WIND       PRES   REMARKS
FAYETTEVILLE   FOG       31  31 100 CALM      30.04S VSB 1/4
FT SMITH       MOCLDY    39  37  92 CALM      30.06R
LITTLE ROCK    CLOUDY    41  41 100 CALM      30.07S

......OKLAHOMA.......

CITY           SKY/WX    TMP DP  RH WIND       PRES   REMARKS
TULSA          CLOUDY    40  38  93 S5        30.03S
PONCA CITY     CLEAR     30  27  88 N3        30.02S
MCALESTER      CLOUDY    38  36  92 CALM      30.05S
OKLAHOMA CITY  CLOUDY    34  32  92 S5        30.04R WCI  30

......IOWA............

CITY           SKY/WX    TMP DP  RH WIND       PRES   REMARKS
DES MOINES     NOT AVBL
QUAD CITIES    CLOUDY    35  31  85 W10       29.96R WCI  27

......ILLINOIS........

CITY           SKY/WX    TMP DP  RH WIND       PRES   REMARKS
QUINCY         CLOUDY    34  33  96 SW5       29.99R WCI  30
CHICAGO        CLOUDY    32  30  92 W13G21    29.91R FOG     WCI  22



USA.gov is the U.S. government's official web portal to all federal, state and local government web resources and services.